This is the latest recevied weather packets stored in our database for station/object IS0HYQ-12. If no packets are shown the sender has not sent any weather packets the latest 10 day(s).
| Time | Temp. | Humidity | Pressure | Rain* | Wind** | Luminosity | Snow |
|---|---|---|---|---|---|---|---|
| 1777342063 | 14.44° C | 99% | 1014.9 hPa | - | - | - | - |
| 1777341163 | 15° C | 99% | 1015 hPa | - | - | - | - |
| 1777336662 | 17.22° C | 46% | 1015.2 hPa | - | - | - | - |
| 1777335762 | 16.67° C | 48% | 1015.3 hPa | - | - | - | - |
| 1777311456 | 26.67° C | 61% | 1015.8 hPa | - | - | - | - |
| 1777307855 | 30° C | 45% | 1016 hPa | - | - | - | - |
| 1777306955 | 29.44° C | 45% | 1016.1 hPa | - | - | - | - |
| 1777304265 | 31.11° C | 41% | 1016.3 hPa | - | - | - | - |
| 1777300652 | 30° C | 45% | 1016.4 hPa | - | - | - | - |
| 1777299752 | 29.44° C | 46% | 1016.5 hPa | - | - | - | - |
| 1777298852 | 29.44° C | 45% | 1016.6 hPa | - | - | - | - |
| 1777297051 | 28.89° C | 49% | 1016.9 hPa | - | - | - | - |
| 1777295251 | 27.78° C | 51% | 1017.1 hPa | - | - | - | - |
| 1777293450 | 26.67° C | 53% | 1017.3 hPa | - | - | - | - |
| 1777292550 | 27.22° C | 48% | 1017.4 hPa | - | - | - | - |
| 1777291650 | 25.56° C | 58% | 1017.6 hPa | - | - | - | - |
| 1777290749 | 25.56° C | 61% | 1017.7 hPa | - | - | - | - |
| 1777289862 | 25° C | 63% | 1017.7 hPa | - | - | - | - |
| 1777288953 | 25° C | 64% | 1017.7 hPa | - | - | - | - |
| 1777288049 | 23.89° C | 71% | 1017.7 hPa | - | - | - | - |
| 1777286248 | 25° C | 60% | 1017.7 hPa | - | - | - | - |
| 1777285348 | 25.56° C | 55% | 1017.8 hPa | - | - | - | - |
| 1777284448 | 26.11° C | 54% | 1017.9 hPa | - | - | - | - |
| 1777281747 | 26.67° C | 46% | 1018.3 hPa | - | - | - | - |
| 1777280847 | 26.67° C | 45% | 1018.4 hPa | - | - | - | - |
* Rain since midnight (hover to see other rain measurements)
** Current wind speed in m/s (hover to see current wind gust speed)